This is the latest recevied weather packets stored in our database for station/object KD9NSC. If no packets are shown the sender has not sent any weather packets the latest 10 day(s).
| Time | Temp. | Humidity | Pressure | Rain* | Wind** | Luminosity | Snow |
|---|---|---|---|---|---|---|---|
| 1777928866 | 25.56° C | 44% | 1000.7 hPa | 0 mm | - | 41 W/m² | - |
| 1777928563 | 25.56° C | 43% | 1000.9 hPa | 0 mm | - | 87 W/m² | - |
| 1777928260 | 25.56° C | 44% | 1000.9 hPa | 0 mm | - | 29 W/m² | - |
| 1777927958 | 26.11° C | 41% | 1000.9 hPa | 0 mm | - | 41 W/m² | - |
| 1777927656 | 26.11° C | 43% | 1000.8 hPa | 0 mm | - | 42 W/m² | - |
| 1777927354 | 26.67° C | 39% | 1001 hPa | 0 mm | - | 31 W/m² | - |
| 1777927053 | 26.67° C | 39% | 1001.1 hPa | 0 mm | - | 161 W/m² | - |
| 1777926749 | 26.11° C | 39% | 1000.9 hPa | 0 mm | - | 104 W/m² | - |
| 1777926450 | 25.56° C | 41% | 1001 hPa | 0 mm | - | 33 W/m² | - |
| 1777926147 | 25.56° C | 41% | 1001 hPa | 0 mm | - | 32 W/m² | - |
| 1777925844 | 25.56° C | 44% | 1001.1 hPa | 0 mm | - | 32 W/m² | - |
| 1777925541 | 25.56° C | 41% | 1001.3 hPa | 0 mm | - | 46 W/m² | - |
| 1777925239 | 26.11° C | 43% | 1001.1 hPa | 0 mm | - | 38 W/m² | - |
| 1777924934 | 26.11° C | 39% | 1001.2 hPa | 0 mm | - | 36 W/m² | - |
| 1777924631 | 26.11° C | 39% | 1001.3 hPa | 0 mm | - | 137 W/m² | - |
| 1777924327 | 26.67° C | 39% | 1001.3 hPa | 0 mm | - | 44 W/m² | - |
| 1777924024 | 26.67° C | 39% | 1001.4 hPa | 0 mm | - | 38 W/m² | - |
| 1777923721 | 27.22° C | 38% | 1001.4 hPa | 0 mm | - | 43 W/m² | - |
| 1777923417 | 27.22° C | 41% | 1001.5 hPa | 0 mm | - | 37 W/m² | - |
| 1777923115 | 27.22° C | 38% | 1001.4 hPa | 0 mm | - | 45 W/m² | - |
| 1777922813 | 27.22° C | 38% | 1001.7 hPa | 0 mm | - | 140 W/m² | - |
| 1777922510 | 27.22° C | 35% | 1001.6 hPa | 0 mm | - | 359 W/m² | - |
| 1777922209 | 27.22° C | 37% | 1001.9 hPa | 0 mm | - | 41 W/m² | - |
| 1777921904 | 26.67° C | 39% | 1001.7 hPa | 0 mm | - | 43 W/m² | - |
| 1777921601 | 26.67° C | 42% | 1001.8 hPa | 0 mm | - | 117 W/m² | - |
* Rain latest hour (hover to see other rain measurements)
** Current wind speed in m/s (hover to see current wind gust speed)